Regional Weather Roundup
Issued by NWS State College, PA

Home | Current Version | Previous Version | Graphics & Text | Print | Product List | Glossary Off
Versions: 1 2 3 4 5 6 7 8 9 10 11 12 13 14 15 16 17 18 19 20 21 22 23 24 25 26 27 28 29 30 31 32 33 34 35 36 37 38 39 40 41 42 43 44 45 46 47 48 49 50

290
ASUS41 KCTP 231703
RWRCTP

REGIONAL WEATHER ROUNDUP
NATIONAL WEATHER SERVICE STATE COLLEGE PA
100 PM EDT MON OCT 23 2017

Note: "fair" indicates few or no clouds below 12,000 feet with no
significant weather and/or obstructions to visibility.

* = STATION THAT DOES NOT REPORT PRECIPITATION /E.G. RAIN...SNOW...ETC/
    THUNDER OR FOG.

PAZ002>004-007>009-013>016-020>023-029>032-231800-
WESTERN PENNSYLVANIA

CITY           SKY/WX    TMP DP  RH WIND       PRES   REMARKS
ERIE           CLOUDY    66  56  70 S16G23    29.92F
MEADVILLE      CLOUDY    62  56  80 VRB3      29.96F
FRANKLIN*      LGT RAIN  61  57  87 SE14      29.99F
NEW CASTLE     LGT RAIN  67  59  75 SE12      29.93F
BEAVER COUNTY  LGT RAIN  64  57  77 SE16G23   29.93
BUTLER*        CLOUDY    63  59  87 SE15      29.96F
PITTSBURGH INT CLOUDY    66  60  81 E16       29.93F
PITTSBURGH     CLOUDY    66  58  75 SE10G22   29.94F
INDIANA*       MOSUNNY   68  57  68 S15G21    30.04F
LATROBE        PTSUNNY   66  57  72 S7        29.99F
WASHINGTON CO* LGT RAIN  65  59  81 SE9       29.96F
$$

PAZ004>006-010>012-017>019-024>028-033>037-041-042-045-046-049>053-231800-
CENTRAL PENNSYLVANIA

CITY           SKY/WX    TMP DP  RH WIND       PRES   REMARKS
BRADFORD       CLOUDY    62  56  80 SE12      30.05F
DUBOIS         CLOUDY    64  53  67 SE12G25   30.03F
CLEARFIELD     CLOUDY    65  57  75 S5        30.08F
JOHNSTOWN      CLOUDY    63  55  75 SE14G24   30.07F
ALTOONA        PTSUNNY   68  58  70 S13       30.09F
STATE COLLEGE  PTSUNNY   66  57  72 S8        30.10F
WILLIAMSPORT   CLOUDY    67  59  75 E3        30.12F
SELINSGROVE    CLOUDY    67  59  75 S9        30.14F
FT INDIANTOWN  CLOUDY    67  65  94 SE7       30.15F
CAPITAL CITY   CLOUDY    68  60  75 E8        30.13F
HARRISBURG     CLOUDY    68  63  84 SE9       30.13F
YORK           CLOUDY    69  63  81 VRB6      30.14F
$$

PAZ038>040-043-044-047-048-054-055-060>062-067>071-231800-
EASTERN PENNSYLVANIA

CITY           SKY/WX    TMP DP  RH WIND       PRES   REMARKS
SCRANTON       CLOUDY    67  59  75 S7        30.19F
MOUNT POCONO   CLOUDY    58  58 100 S10       30.22F
ALLENTOWN      CLOUDY    70  61  73 SE8       30.19F
QUAKERTOWN*    CLOUDY    70  63  78 SE7       30.20F
READING        CLOUDY    70  65  84 SE9       30.16F
LANCASTER      CLOUDY    70  65  84 SE6       30.15F
COATESVILLE    CLOUDY    70  64  83 SE10G18   30.18F
POTTSTOWN      CLOUDY    70  63  78 VRB3      30.19F
BLUE BELL      CLOUDY    70  63  78 SE8       30.20F
DOYLESTOWN     CLOUDY    70  63  78 SE5       30.19F
WILLOW GROVE   NOT AVBL
NORTH PHILA    CLOUDY    75  62  64 SE13G21   30.20F
PHILADELPHIA   CLOUDY    73  63  70 SE8       30.19F
$$




USA.gov is the U.S. government's official web portal to all federal, state and local government web resources and services.